This is the latest recevied weather packets stored in our database for station/object N4QB-13. If no packets are shown the sender has not sent any weather packets the latest 10 day(s).
| Time | Temp. | Humidity | Pressure | Rain* | Wind** | Luminosity | Snow |
|---|---|---|---|---|---|---|---|
| 1777321919 | 27.78° C | 59% | 1015.3 hPa | 0 mm | - | 456 W/m² | - |
| 1777321615 | 27.78° C | 60% | 1014.9 hPa | 0 mm | - | 467 W/m² | - |
| 1777321312 | 26.67° C | 61% | 1015.2 hPa | 0 mm | - | 479 W/m² | - |
| 1777321009 | 27.78° C | 60% | 1015 hPa | 0 mm | - | 490 W/m² | - |
| 1777320707 | 27.22° C | 61% | 1015 hPa | 0 mm | - | 505 W/m² | - |
| 1777320404 | 27.22° C | 61% | 1015.3 hPa | 0 mm | - | 517 W/m² | - |
| 1777320101 | 27.22° C | 62% | 1015.1 hPa | 0 mm | - | 521 W/m² | - |
| 1777319798 | 27.22° C | 62% | 1015.1 hPa | 0 mm | - | 530 W/m² | - |
| 1777319495 | 27.22° C | 62% | 1015.3 hPa | 0 mm | - | 540 W/m² | - |
| 1777319192 | 26.67° C | 63% | 1015.5 hPa | 0 mm | - | 546 W/m² | - |
| 1777318889 | 27.22° C | 62% | 1015.3 hPa | 0 mm | - | 580 W/m² | - |
| 1777318586 | 26.67° C | 62% | 1015.7 hPa | 0 mm | - | 578 W/m² | - |
| 1777318282 | 26.67° C | 62% | 1015.5 hPa | 0 mm | - | 586 W/m² | - |
| 1777317979 | 27.22° C | 63% | 1015.6 hPa | 0 mm | - | 97 W/m² | - |
| 1777317676 | 27.22° C | 62% | 1015.6 hPa | 0 mm | - | 606 W/m² | - |
| 1777317373 | 27.22° C | 63% | 1015.7 hPa | 0 mm | - | 123 W/m² | - |
| 1777317068 | 26.67° C | 64% | 1015.7 hPa | 0 mm | - | 615 W/m² | - |
| 1777316766 | 26.67° C | 64% | 1015.8 hPa | 0 mm | - | 615 W/m² | - |
| 1777316462 | 26.11° C | 64% | 1015.6 hPa | 0 mm | - | 629 W/m² | - |
| 1777316159 | 26.67° C | 64% | 1015.8 hPa | 0 mm | - | 630 W/m² | - |
| 1777315857 | 26.67° C | 65% | 1015.9 hPa | 0 mm | - | 640 W/m² | - |
| 1777315556 | 26.67° C | 66% | 1015.9 hPa | 0 mm | - | 653 W/m² | - |
| 1777315254 | 26.11° C | 66% | 1015.8 hPa | 0 mm | - | 659 W/m² | - |
| 1777314950 | 26.11° C | 66% | 1015.9 hPa | 0 mm | - | 676 W/m² | - |
| 1777314646 | 26.67° C | 67% | 1016.1 hPa | 0 mm | - | 686 W/m² | - |
* Rain latest hour (hover to see other rain measurements)
** Current wind speed in m/s (hover to see current wind gust speed)